Flag for U.S.A. Weather past 2 weeks in Hollywood, California, U.S.A.

Now
49 °F

Clear.


Feels Like: 46 °F
Forecast: 49 / 58 °F
Wind: 6 mph from West

Location: Burbank-Glendale-Pasadena Airport

Current Time: Mar 2, 2015 at 3:27:33 AM

Latest Report: Mar 2, 2015 at 2:53 AM


Visibility: 10 mi

Pressure: 29.86 "Hg

Humidity: 90%

Dew point: 46 °F

Location of HollywoodLocation

Historic Weather in Hollywood — Graph

°F

Hollywood temperature yesterday

Maximum temperature yesterday: 62 °F (at 1:53 PM)
Minimum temperature yesterday: 48 °F (at 4:53 AM)
Average temperature yesterday: 53 °F

Past Weeks' High & Low Weather Summary

 TemperatureHumidityPressure
High79 °F (Feb 15, 1:53 PM)100% (Feb 18, 6:55 AM)30.21 "Hg (Feb 18, 6:55 AM)
Low43 °F (Feb 24, 3:53 AM)15% (Feb 24, 3:53 PM)29.71 "Hg (Feb 27, 11:53 PM)
Average58 °F66%29.95 "Hg
* Reported Feb 15 1:53 AM — Mar 2 1:53 AM, Hollywood, Weather by CustomWeather, © 2015

Note: Actual official high and low records may vary slightly from our data, if they occured in-between our weather recording intervals... More about our weather records

Advertising

Hollywood weather history for previous 24 hours

 ConditionsComfort  
Time TempWeatherWind HumidityBarometerVisibility
1:53 AM
Mon, Mar 2
50 °FPassing clouds.No wind86%29.88 "Hg10 mi
12:53 AM49 °FLight rain. Mostly cloudy.3 mph90%29.90 "Hg10 mi
11:53 PM
Sun, Mar 1
50 °FHeavy rain. Fog.6 mph89%29.92 "Hg3 mi
10:53 PM50 °FRain. Mostly cloudy.8 mph86%29.92 "Hg8 mi
9:53 PM50 °FPassing clouds.5 mph83%29.92 "Hg10 mi
8:53 PM50 °FLight rain. Mostly cloudy.6 mph83%29.92 "Hg8 mi
7:53 PM50 °FRain. Fog.6 mph86%29.91 "Hg4 mi
6:53 PM51 °FRain. Fog.3 mph86%29.91 "Hg4 mi
5:53 PM53 °FRain. Mostly cloudy.6 mph74%29.90 "Hg4 mi
4:53 PM54 °FMore clouds than sun.6 mph72%29.87 "Hg10 mi
3:53 PM58 °FMostly cloudy.8 mph58%29.86 "Hg10 mi
2:53 PM57 °FLight rain. More clouds than sun.14 mph69%29.86 "Hg10 mi
1:53 PM62 °FScattered clouds.12 mph46%29.85 "Hg10 mi
12:53 PM61 °FPassing clouds.13 mph48%29.87 "Hg10 mi
11:53 AM61 °FScattered clouds.8 mph50%29.90 "Hg10 mi
10:53 AM58 °FPartly sunny.12 mph56%29.91 "Hg10 mi
9:53 AM55 °FPartly sunny.No wind64%29.92 "Hg10 mi
8:53 AM54 °FPartly sunny.No wind69%29.92 "Hg10 mi
7:53 AM51 °FOvercast.6 mph83%29.91 "Hg10 mi
6:53 AM48 °FPartly sunny.3 mph83%29.90 "Hg10 mi
5:53 AM48 °FClear.No wind83%29.89 "Hg10 mi
4:53 AM48 °FPassing clouds.5 mph86%29.88 "Hg10 mi
3:53 AM49 °FLight rain. Mostly cloudy.3 mph86%29.88 "Hg10 mi
Weather by CustomWeather, © 2015

See weather overviewHow to use our weather pages